{"data":{"norad_id":63885,"intl_designator":"2025-094X","name":"STARLINK-33858","alt_names":[],"object_type":"PAYLOAD","status":"ACTIVE","operator":null,"country":"US","launch_date":"2025-05-10","launch_site_code":"AFWTR","launch_vehicle":null,"mission":null,"orbit_class":"UNKNOWN","rcs_meters":null,"size_class":null,"mass_kg":null,"dimensions":null,"purposes":["comms"],"wikipedia_slug":null,"has_3d_model":false,"image_url":null,"decayed_at":null,"tle_current":{"epoch":"2026-05-25T03:04:53.188896Z","epoch_age_seconds":54231,"freshness":"FRESH","line1":"1 63885U 25094X   26145.12839339  .00003874  00000+0  33224-3 0  9994","line2":"2 63885  70.0022  41.7001 0002712 270.9237  89.1611 14.98338817 58650","mean_motion":14.98338817,"eccentricity":0.0002712,"inclination_deg":70.0022,"raan_deg":41.7001,"arg_perigee_deg":270.9237,"mean_anomaly_deg":89.1611,"bstar":0.00033224,"rev_number":5865,"period_min":96.106433582439,"perigee_km":570.14374031537,"apogee_km":573.9135101505,"semimajor_km":6950.1656252329,"source":"CELESTRAK","updated_at":"2026-05-25T13:38:20.173672Z"}}}